Location: Newark
(45.9456°N, 15.4064°E)
Time: 13:11:40
(UTC+00:00)

SR - Pass Details

Date: 30 January 2020
Orbit: 575 x 880 km, 66.7° (Epoch: 22 February)

Event Time Altitude Azimuth Distance (km) Brightness Sun altitude
Rises 03:39:33 0° 330° (NNW) 3,421 - -28.6°
Reaches altitude 10° 03:42:19 10° 339° (NNW) 2,446 - -28.1°
Exits shadow 03:44:44 23° 356° (N) 1,693 ? -27.7°
Maximum altitude 03:47:28 35° 45° (NE) 1,252 ? -27.2°
Drops below altitude 10° 03:52:14 10° 111° (ESE) 2,259 ? -26.4°
Sets 03:54:42 0° 120° (ESE) 3,126 ? -26.0°
